Location: Champs
(48.8539°N, 2.6040°E)
Time: 23:11:54
(UTC+00:00)

Cosmos 1953 - Pass Details

Date: 29 May 2022
Orbit: 533 x 555 km, 82.5° (Epoch: 01 July)

Event Time Altitude Azimuth Distance (km) Brightness Sun altitude
Rises 23:20:04 0° 356° (N) 2,727 7.5 -19.2°
Reaches altitude 10° 23:22:21 10° 5° (N) 1,824 6.2 -19.2°
Maximum altitude 23:26:07 38° 74° (ENE) 839 3.3 -19.3°
Enters shadow 23:27:19 30° 114° (ESE) 983 3.3 -19.3°
